#timestamp,LO_Frequency,Hit,StdDev 
1657087215.8,286046999.7,P
1657087235.6,286046999.9,N
1657087255.5,286047002.7,P
1657087275.3,286047000.6,N
1657087295.1,286046998.1,N
1657087315.9,286046999.9,N
1657087335.7,286047002.7,N
1657087355.6,286047001.6,N
1657087375.4,286047001.6,N
1657087395.2,286047001.6,N
1657087415.1,286047001.8,N
1657087416.0,286047001.8,N
1657087435.8,286047001.9,N
1657087455.6,286047002.3,N
1657087475.5,286047002.6,N
1657087495.3,286047002.2,N
1657087515.2,286047001.3,N
1657087535.9,286047000.2,N
1657087555.7,286047000.7,N
1657087575.6,286047002.7,N
1657087595.4,286046999.9,N
1657087615.2,286046999.9,N
1657087635.1,286046998.3,N
1657087636.0,286046998.3,N
1657087655.8,286047001.0,N
1657087675.7,286047000.8,N
1657087695.5,286047000.4,N
1657087715.3,286047002.7,N
1657087735.2,286047002.6,N
1657087755.0,286047002.6,N
1657087755.9,286047002.6,N
1657087775.7,286047000.2,N
1657087795.6,286046999.8,N
1657087815.4,286046999.9,N
1657087835.3,286047000.9,N
1657087855.1,286047001.0,N
1657087856.0,286047001.0,N
1657087875.8,286047001.1,N
1657087895.7,286046999.3,N
1657087915.5,286046998.9,N
1657087935.3,286047000.8,N
1657087955.2,286046999.7,N
1657087975.0,286046999.8,N
1657087975.9,286046999.8,N
1657087995.8,286047000.3,N
1657088015.6,286047002.8,N
1657088035.4,286047000.7,N
1657088055.3,286047000.8,N
1657088075.1,286047001.0,N
1657088095.9,286047000.6,N
1657088115.7,286047000.3,N
1657088135.5,286046999.8,N
1657088155.4,286047002.2,N
1657088175.2,286047002.6,N
1657088195.0,286047001.5,N
1657088195.9,286047001.5,N
1657088215.8,286047001.9,N
1657088235.6,286047001.5,N
1657088255.5,286047002.1,N
1657088275.3,286047002.7,N
1657088295.1,286047001.9,N
1657088315.9,286047002.2,N
1657088335.7,286047001.9,N
1657088355.5,286046999.7,N
1657088375.4,286046998.1,N
1657088395.2,286046999.6,N
1657088415.1,286046996.9,N
1657088416.0,286046996.9,N
1657088435.8,286046996.8,N
1657088455.6,286046996.6,N
1657088475.5,286046997.5,N
1657088495.3,286046997.6,N
1657088515.1,286046994.9,N
1657088535.9,286046998.0,N
1657088555.7,286046997.4,N
1657088575.6,286046997.4,N
1657088595.4,286046995.4,N
1657088615.2,286046997.5,N
1657088635.1,286046995.1,N
1657088636.0,286046995.1,N
1657088655.8,286046996.9,N
1657088675.6,286047000.6,N
1657088695.5,286047000.7,N
1657088715.3,286046998.5,N
1657088735.2,286046996.7,N
1657088755.9,286046997.0,N
1657088775.7,286046998.0,N
1657088795.6,286046997.8,N
1657088815.4,286046995.3,N
1657088835.2,286046995.5,N
1657088855.1,286046997.8,N
1657088856.0,286046997.8,N
1657088875.8,286046995.0,N
1657088895.7,286046996.3,N
1657088915.5,286046993.5,Y
1657088935.3,286046995.9,P
1657088955.2,286046995.6,P
1657088975.0,286046993.9,P
1657088975.9,286046993.9,Y
1657088995.8,286047000.8,P
1657089015.6,286046998.8,N
1657089035.4,286046999.4,N
1657089055.3,286046998.6,N
1657089075.1,286046998.6,N
1657089095.8,286046998.9,N
1657089115.7,286046996.5,N
1657089135.5,286046997.4,N
1657089155.4,286046997.2,N
1657089175.2,286046997.0,N
1657089195.0,286046999.2,N
1657089195.9,286046999.2,N
1657089215.8,286046996.8,N
1657089235.6,286046996.9,N
1657089255.4,286046997.7,N
1657089275.3,286046997.4,N
1657089295.1,286046996.9,N
1657089315.9,286046995.0,Y
1657089335.7,286046999.3,P
1657089355.5,286046998.4,N
1657089375.4,286047001.2,N
1657089395.2,286046998.5,N
1657089415.0,286046998.3,N
1657089415.9,286046998.3,N
1657089435.8,286046998.5,N
1657089455.6,286046998.4,N
1657089475.4,286046998.5,N
1657089495.3,286047000.0,N
1657089515.1,286047000.4,N
1657089535.9,286046999.8,N
1657089555.7,286047000.8,N
1657089575.5,286046998.2,N
1657089595.4,286046995.1,Y
1657089615.2,286046995.6,P
1657089635.0,286046995.3,N
1657089635.9,286046995.3,N
1657089655.8,286046996.2,N
1657089675.6,286046991.8,Y
1657089695.5,286046999.6,P
1657089715.3,286046998.8,N
1657089735.1,286046999.4,N
1657089755.9,286046999.2,N
1657089775.7,286046999.5,N
1657089795.5,286046999.1,N
1657089815.4,286046999.3,N
1657089835.2,286046999.6,N
1657089855.1,286046998.6,N
1657089856.0,286046998.6,N
1657089875.8,286046999.5,N
1657089895.6,286047001.1,N
1657089915.5,286046998.6,N
1657089935.3,286046997.1,N
1657089955.1,286046997.0,N
1657089975.9,286046997.8,N
1657089995.7,286046996.6,Y
1657090015.6,286046998.7,P
1657090035.4,286046998.7,P
1657090055.2,286046999.4,P
1657090075.1,286046998.3,Y
1657090076.0,286046998.3,P
1657090095.8,286047001.0,P
1657090115.6,286047000.9,N
1657090135.5,286047000.3,N
1657090155.3,286046999.7,N
1657090175.2,286047001.0,N
1657090195.9,286046998.3,N
1657090215.7,286046998.3,N
1657090235.6,286046998.7,N
1657090255.4,286047002.3,N
1657090275.2,286046999.9,N
1657090295.1,286047000.9,N
1657090296.0,286047000.9,N
1657090315.8,286046998.5,N
1657090335.7,286047001.2,N
1657090355.5,286047000.3,N
1657090375.3,286047000.4,N
1657090395.2,286047000.1,N
1657090415.0,286047002.8,N
1657090415.9,286047002.8,N
1657090435.8,286047002.6,N
1657090485.6,286047002.6,E
1657090495.5,286047000.5,N
1657090515.4,286046998.7,P
1657090535.2,286046999.2,N
1657090555.1,286046997.0,Y
1657090556.0,286046997.0,P
1657090575.8,286046996.8,N
1657090595.6,286046997.2,N
1657090615.5,286046995.0,Y
1657090635.3,286046999.2,P
1657090655.1,286046999.1,N
1657090675.9,286046999.0,N
1657090695.7,286046999.0,N
1657090715.6,286046999.2,N
1657090735.4,286046998.2,Y
1657090755.2,286047000.2,P
1657090775.1,286047000.0,N
1657090776.0,286047000.0,N
1657090795.8,286047002.5,Y
